Time,TemperatureF,DewpointF,PressureIn,WindDirection,WindDirectionDegrees,WindSpeedMPH,WindSpeedGustMPH,Humidity,HourlyPrecipIn,Conditions,Clouds,dailyrainin,SolarRadiationWatts/m^2,SoftwareType,DateUTC
2013-09-10 00:00:00,72.0,70.0,-100.00,South,180,3.0,-999.0,93,-99.99,,,-99.99,0.000000,,2013-09-10 04:00:00,
2013-09-10 00:43:00,72.0,70.0,-100.00,South,180,3.0,-999.0,93,-99.99,,,-99.99,0.000000,,2013-09-10 04:43:00,
2013-09-10 00:53:00,72.0,70.0,-100.00,South,180,3.0,-999.0,93,-99.99,,,-99.99,0.000000,,2013-09-10 04:53:00,
2013-09-10 01:00:00,73.0,71.0,-100.00,South,180,3.0,-999.0,93,-99.99,,,-99.99,0.000000,,2013-09-10 05:00:00,
2013-09-10 01:43:00,73.0,71.0,-100.00,South,180,3.0,-999.0,93,-99.99,,,-99.99,0.000000,,2013-09-10 05:43:00,
2013-09-10 01:53:00,73.0,71.0,-100.00,South,180,3.0,-999.0,93,-99.99,,,-99.99,0.000000,,2013-09-10 05:53:00,
2013-09-10 02:00:00,73.0,71.0,-100.00,SSW,202,2.0,-999.0,93,-99.99,,,-99.99,0.000000,,2013-09-10 06:00:00,
2013-09-10 02:43:00,73.0,71.0,-100.00,SSW,202,2.0,-999.0,93,-99.99,,,-99.99,0.000000,,2013-09-10 06:43:00,
2013-09-10 02:52:00,73.0,71.0,-100.00,SSW,202,2.0,-999.0,93,-99.99,,,-99.99,0.000000,,2013-09-10 06:52:00,
2013-09-10 03:00:00,74.0,71.0,-100.00,SSW,202,3.0,-999.0,91,-99.99,,,-99.99,0.000000,,2013-09-10 07:00:00,
2013-09-10 03:42:00,74.0,71.0,-100.00,SSW,202,3.0,-999.0,91,-99.99,,,-99.99,0.000000,,2013-09-10 07:42:00,
2013-09-10 03:52:00,74.0,71.0,-100.00,SSW,202,3.0,-999.0,91,-99.99,,,-99.99,0.000000,,2013-09-10 07:52:00,
2013-09-10 04:00:00,75.0,71.0,-100.00,SW,225,4.0,-999.0,88,-99.99,,,-99.99,0.000000,,2013-09-10 08:00:00,
2013-09-10 04:42:00,75.0,71.0,-100.00,SW,225,4.0,-999.0,88,-99.99,,,-99.99,0.000000,,2013-09-10 08:42:00,
2013-09-10 04:52:00,75.0,71.0,-100.00,SW,225,4.0,-999.0,88,-99.99,,,-99.99,0.000000,,2013-09-10 08:52:00,
2013-09-10 05:00:00,76.0,71.0,-100.00,SW,225,4.0,-999.0,86,-99.99,,,-99.99,0.000000,,2013-09-10 09:00:00,
2013-09-10 05:43:00,76.0,71.0,-100.00,SW,225,4.0,-999.0,86,-99.99,,,-99.99,0.000000,,2013-09-10 09:43:00,
2013-09-10 05:54:00,76.0,71.0,-100.00,SW,225,4.0,-999.0,86,-99.99,,,-99.99,0.000000,,2013-09-10 09:54:00,
2013-09-10 06:00:00,76.0,70.0,-100.00,SW,225,4.0,-999.0,83,-99.99,,,-99.99,0.000000,,2013-09-10 10:00:00,
2013-09-10 06:43:00,76.0,70.0,-100.00,SW,225,4.0,-999.0,83,-99.99,,,-99.99,0.000000,,2013-09-10 10:43:00,
2013-09-10 06:53:00,76.0,70.0,-100.00,SW,225,4.0,-999.0,83,-99.99,,,-99.99,0.000000,,2013-09-10 10:53:00,
2013-09-10 07:00:00,76.0,69.0,-100.00,SW,225,5.0,-999.0,79,-99.99,,,-99.99,0.000000,,2013-09-10 11:00:00,
2013-09-10 07:42:00,76.0,69.0,-100.00,SW,225,5.0,-999.0,79,-99.99,,,-99.99,0.000000,,2013-09-10 11:42:00,
2013-09-10 07:52:00,76.0,69.0,-100.00,SW,225,5.0,-999.0,79,-99.99,,,-99.99,0.000000,,2013-09-10 11:52:00,
2013-09-10 08:00:00,75.0,69.0,-100.00,SW,225,4.0,-999.0,80,-99.99,,,-99.99,20.879999,,2013-09-10 12:00:00,
2013-09-10 08:42:00,75.0,69.0,-100.00,SW,225,4.0,-999.0,80,-99.99,,,-99.99,20.879999,,2013-09-10 12:42:00,
2013-09-10 08:52:00,75.0,69.0,-100.00,SW,225,4.0,-999.0,80,-99.99,,,-99.99,20.879999,,2013-09-10 12:52:00,
2013-09-10 09:00:00,77.0,69.0,-100.00,SW,225,5.0,-999.0,77,-99.99,,,-99.99,158.919998,,2013-09-10 13:00:00,
2013-09-10 09:42:00,77.0,69.0,-100.00,SW,225,5.0,-999.0,77,-99.99,,,-99.99,158.919998,,2013-09-10 13:42:00,
2013-09-10 09:52:00,77.0,69.0,-100.00,SW,225,5.0,-999.0,77,-99.99,,,-99.99,158.919998,,2013-09-10 13:52:00,
2013-09-10 10:00:00,79.0,69.0,-100.00,SW,225,6.0,-999.0,70,-99.99,,,-99.99,314.359985,,2013-09-10 14:00:00,
2013-09-10 10:42:00,79.0,69.0,-100.00,SW,225,6.0,-999.0,70,-99.99,,,-99.99,314.359985,,2013-09-10 14:42:00,
2013-09-10 10:52:00,79.0,69.0,-100.00,SW,225,6.0,-999.0,70,-99.99,,,-99.99,314.359985,,2013-09-10 14:52:00,
2013-09-10 11:00:00,82.0,69.0,-100.00,WSW,247,7.0,-999.0,64,-99.99,,,-99.99,454.720001,,2013-09-10 15:00:00,
2013-09-10 11:43:00,82.0,69.0,-100.00,WSW,247,7.0,-999.0,64,-99.99,,,-99.99,454.720001,,2013-09-10 15:43:00,
2013-09-10 11:54:00,82.0,69.0,-100.00,WSW,247,7.0,-999.0,64,-99.99,,,-99.99,454.720001,,2013-09-10 15:54:00,
2013-09-10 12:00:00,84.0,69.0,-100.00,WSW,247,7.0,-999.0,60,-99.99,,,-99.99,567.239990,,2013-09-10 16:00:00,
2013-09-10 12:43:00,84.0,69.0,-100.00,WSW,247,7.0,-999.0,60,-99.99,,,-99.99,567.239990,,2013-09-10 16:43:00,
2013-09-10 12:53:00,84.0,69.0,-100.00,WSW,247,7.0,-999.0,60,-99.99,,,-99.99,567.239990,,2013-09-10 16:53:00,
2013-09-10 13:00:00,86.0,68.0,-100.00,SW,225,7.0,-999.0,55,-99.99,,,-99.99,641.479980,,2013-09-10 17:00:00,
2013-09-10 13:43:00,86.0,68.0,-100.00,SW,225,7.0,-999.0,55,-99.99,,,-99.99,641.479980,,2013-09-10 17:43:00,
2013-09-10 13:53:00,86.0,68.0,-100.00,SW,225,7.0,-999.0,55,-99.99,,,-99.99,641.479980,,2013-09-10 17:53:00,
2013-09-10 14:00:00,88.0,69.0,-100.00,SW,225,6.0,-999.0,53,-99.99,,,-99.99,665.840027,,2013-09-10 18:00:00,
2013-09-10 14:43:00,88.0,69.0,-100.00,SW,225,6.0,-999.0,53,-99.99,,,-99.99,665.840027,,2013-09-10 18:43:00,
2013-09-10 14:52:00,88.0,69.0,-100.00,SW,225,6.0,-999.0,53,-99.99,,,-99.99,665.840027,,2013-09-10 18:52:00,
2013-09-10 15:00:00,89.0,67.0,-100.00,SW,225,7.0,-999.0,48,-99.99,,,-99.99,639.159973,,2013-09-10 19:00:00,
2013-09-10 15:42:00,89.0,67.0,-100.00,SW,225,7.0,-999.0,48,-99.99,,,-99.99,639.159973,,2013-09-10 19:42:00,
2013-09-10 15:52:00,89.0,67.0,-100.00,SW,225,7.0,-999.0,48,-99.99,,,-99.99,639.159973,,2013-09-10 19:52:00,
2013-09-10 17:00:00,89.0,64.0,-100.00,WSW,247,8.0,-999.0,44,-99.99,,,-99.99,452.399994,,2013-09-10 21:00:00,
2013-09-10 17:44:00,89.0,64.0,-100.00,WSW,247,8.0,-999.0,44,-99.99,,,-99.99,452.399994,,2013-09-10 21:44:00,
2013-09-10 17:54:00,89.0,64.0,-100.00,WSW,247,8.0,-999.0,44,-99.99,,,-99.99,452.399994,,2013-09-10 21:54:00,
2013-09-10 18:00:00,88.0,64.0,-100.00,SW,225,8.0,-999.0,43,-99.99,,,-99.99,309.720001,,2013-09-10 22:00:00,
2013-09-10 18:42:00,88.0,64.0,-100.00,SW,225,8.0,-999.0,43,-99.99,,,-99.99,309.720001,,2013-09-10 22:42:00,
2013-09-10 18:55:00,88.0,64.0,-100.00,SW,225,8.0,-999.0,43,-99.99,,,-99.99,309.720001,,2013-09-10 22:55:00,
2013-09-10 19:00:00,87.0,63.0,-100.00,SW,225,6.0,-999.0,45,-99.99,,,-99.99,158.919998,,2013-09-10 23:00:00,
2013-09-10 19:42:00,87.0,63.0,-100.00,SW,225,6.0,-999.0,45,-99.99,,,-99.99,158.919998,,2013-09-10 23:42:00,
2013-09-10 19:53:00,87.0,63.0,-100.00,SW,225,6.0,-999.0,45,-99.99,,,-99.99,158.919998,,2013-09-10 23:53:00,
2013-09-10 20:00:00,83.0,63.0,-100.00,SSW,202,4.0,-999.0,50,-99.99,,,-99.99,33.639999,,2013-09-11 00:00:00,
2013-09-10 20:42:00,83.0,63.0,-100.00,SSW,202,4.0,-999.0,50,-99.99,,,-99.99,33.639999,,2013-09-11 00:42:00,
2013-09-10 20:52:00,83.0,63.0,-100.00,SSW,202,4.0,-999.0,50,-99.99,,,-99.99,33.639999,,2013-09-11 00:52:00,
2013-09-10 21:00:00,78.0,64.0,-100.00,SSW,202,2.0,-999.0,62,-99.99,,,-99.99,0.000000,,2013-09-11 01:00:00,
2013-09-10 21:42:00,78.0,64.0,-100.00,SSW,202,2.0,-999.0,62,-99.99,,,-99.99,0.000000,,2013-09-11 01:42:00,
2013-09-10 21:53:00,78.0,64.0,-100.00,SSW,202,2.0,-999.0,62,-99.99,,,-99.99,0.000000,,2013-09-11 01:53:00,
2013-09-10 22:00:00,78.0,63.0,-100.00,SSW,202,4.0,-999.0,61,-99.99,,,-99.99,0.000000,,2013-09-11 02:00:00,
2013-09-10 22:43:00,78.0,63.0,-100.00,SSW,202,4.0,-999.0,61,-99.99,,,-99.99,0.000000,,2013-09-11 02:43:00,
2013-09-10 22:52:00,78.0,63.0,-100.00,SSW,202,4.0,-999.0,61,-99.99,,,-99.99,0.000000,,2013-09-11 02:52:00,